METAR EVRA 181050Z 11006KT 070V140 9999 OVC012 09/08 Q1019 R18/190095 NOSIG =

Controllers Online

PositionControllerOnline
No controllers currently online

Booked ATC Today

No ATC booked yet.
Be the first for today!
* Times are UTC

The time is now

UTC: 

Local: 

Latvia vACC on twitter